Location: Vancouver
(49.2500°N, 123.1330°W)
Time: 12:01:22
(UTC-08:00)

SO-67 - Visible Passes

Search period start: 06 March 2015 00:00
Search period end: 16 March 2015 01:00
Orbit: 447 x 449 km, 97.1° (Epoch: 06 March)

Date Brightness Start Highest point End Pass type
(mag) Time Alt. Az. Time Alt. Az. Time Alt. Az.
06 Mar ? 18:51:17 10° SSW 18:54:24 33° W 18:57:31 10° NNW visible
07 Mar ? 06:10:02 10° ENE 06:11:12 12° E 06:12:31 10° ESE visible
08 Mar ? 20:13:56 10° SW 20:16:26 19° W 20:18:54 10° NW visible
09 Mar ? 19:37:29 10° S 19:40:46 48° W 19:44:05 10° NNW visible
10 Mar ? 20:37:27 10° WSW 20:38:28 11° W 20:39:18 10° WNW visible
11 Mar ? 19:59:39 10° SSW 20:02:36 26° W 20:05:30 10° NW visible
13 Mar ? 20:22:13 10° SW 20:24:22 15° W 20:26:25 10° NW visible
14 Mar ? 19:45:18 10° SSW 19:48:30 38° W 19:51:42 10° NNW visible
